TimeEDT,TemperatureF,Dew PointF,Humidity,Sea Level PressureIn,VisibilityMPH,Wind Direction,Wind SpeedMPH,Gust SpeedMPH,PrecipitationIn,Events,Conditions,WindDirDegrees,DateUTC
12:56 AM,61.0,45.0,56,30.12,10.0,SSE,6.9,-,N/A,,Partly Cloudy,150,2013-09-07 04:56:00
1:56 AM,62.1,45.0,53,30.11,10.0,South,5.8,-,N/A,,Clear,170,2013-09-07 05:56:00
2:56 AM,61.0,46.0,58,30.11,10.0,South,4.6,-,N/A,,Clear,180,2013-09-07 06:56:00
3:56 AM,62.1,46.9,58,30.10,10.0,South,5.8,-,N/A,,Clear,190,2013-09-07 07:56:00
4:56 AM,60.1,48.0,64,30.10,10.0,South,3.5,-,N/A,,Clear,190,2013-09-07 08:56:00
5:56 AM,60.1,48.9,67,30.10,10.0,South,3.5,-,N/A,,Clear,180,2013-09-07 09:56:00
6:56 AM,57.9,50.0,75,30.09,10.0,SSE,3.5,-,N/A,,Partly Cloudy,160,2013-09-07 10:56:00
7:56 AM,60.1,51.1,72,30.10,10.0,Calm,Calm,-,N/A,,Scattered Clouds,0,2013-09-07 11:56:00
8:56 AM,64.9,52.0,63,30.09,10.0,SW,5.8,-,N/A,,Scattered Clouds,220,2013-09-07 12:56:00
9:56 AM,71.1,54.0,55,30.09,10.0,SW,9.2,-,N/A,,Mostly Cloudy,220,2013-09-07 13:56:00
10:56 AM,77.0,57.9,52,30.09,10.0,WSW,9.2,-,N/A,,Mostly Cloudy,240,2013-09-07 14:56:00
11:56 AM,81.0,61.0,50,30.07,10.0,SW,11.5,-,N/A,,Mostly Cloudy,220,2013-09-07 15:56:00
12:56 PM,81.0,63.0,54,30.06,10.0,West,10.4,19.6,N/A,,Mostly Cloudy,270,2013-09-07 16:56:00
1:56 PM,86.0,62.1,44,30.04,10.0,WSW,12.7,20.7,N/A,,Mostly Cloudy,240,2013-09-07 17:56:00
2:56 PM,84.0,62.1,47,30.01,10.0,SW,9.2,-,N/A,,Mostly Cloudy,230,2013-09-07 18:56:00
3:56 PM,86.0,62.1,44,29.99,10.0,WSW,9.2,-,N/A,,Mostly Cloudy,240,2013-09-07 19:56:00
4:56 PM,86.0,61.0,43,29.98,10.0,SW,11.5,-,N/A,,Mostly Cloudy,230,2013-09-07 20:56:00
5:56 PM,84.9,60.1,43,29.97,10.0,West,9.2,-,N/A,,Scattered Clouds,270,2013-09-07 21:56:00
6:56 PM,82.9,61.0,47,29.97,10.0,SW,9.2,-,N/A,,Mostly Cloudy,230,2013-09-07 22:56:00
7:56 PM,80.1,61.0,52,29.97,10.0,SW,6.9,-,N/A,,Mostly Cloudy,220,2013-09-07 23:56:00
8:56 PM,78.1,63.0,60,29.97,10.0,SSW,8.1,-,0.01,,Partly Cloudy,210,2013-09-08 00:56:00
9:56 PM,77.0,63.0,62,29.97,10.0,SW,8.1,-,N/A,,Mostly Cloudy,220,2013-09-08 01:56:00
10:56 PM,75.0,64.0,69,29.96,10.0,WSW,9.2,-,N/A,,Overcast,240,2013-09-08 02:56:00
11:56 PM,73.0,64.0,73,29.97,9.0,WSW,6.9,-,N/A,,Overcast,250,2013-09-08 03:56:00